Regional Weather Roundup
Issued by NWS

Home | Current Version | Previous Version | Text Only | Print | Product List | Glossary On
Versions: 1 2 3 4 5 6 7 8 9 10 11 12 13 14 15 16 17 18 19 20 21 22 23 24 25 26 27 28 29 30 31 32 33 34 35 36 37 38 39 40 41 42 43 44 45 46 47 48 49 50
000
ASUS45 KCYS 302210
RWRWY

WYOMING REGIONAL WEATHER ROUNDUP
NATIONAL WEATHER SERVICE CHEYENNE WY
400 PM MDT THU MAR 30 2017

NOTE:  "FAIR" INDICATES FEW OR NO CLOUDS BELOW 12,000 FEET
WITH NO SIGNIFICANT WEATHER AND/OR OBSTRUCTIONS TO VISIBILITY.

WYZ001-302300-
YELLOWSTONE NATIONAL PARK

CITY           SKY/WX    TMP DP  RH WIND       PRES   REMARKS
LK YELLOWSTONE   N/A     37  33  85 CALM      29.72S
W YELLOWSTONE  NOT AVBL

$$
WYZ002>013-054>058-071-098>099-302300-
NORTHERN WYOMING

CITY           SKY/WX    TMP DP  RH WIND       PRES   REMARKS
JACKSON        CLOUDY    46  34  61 W7        29.65F
CODY           CLOUDY    44  37  76 N14       29.71F
GREYBULL       FAIR      57  37  47 NW23      29.63S
WORLAND        FAIR      60  40  47 N20       29.60F
SHERIDAN       LGT RAIN  49  43  80 NW6       29.71S
BUFFALO        CLOUDY    51  38  60 N15G25    29.70S
GILLETTE       CLOUDY    57  35  43 E6        29.66S
HULETT         CLOUDY    54  37  54 NE7       29.69S
NEWCASTLE      FAIR      55  30  38 S17       29.67F

$$
WYZ014>020-022>026-101>103-302300-
CENTRAL WYOMING

CITY           SKY/WX    TMP DP  RH WIND       PRES   REMARKS
BIG PINEY      CLOUDY    48  33  56 E12       29.67F
PINEDALE       CLOUDY    41  36  81 S10       29.67F
DUBOIS         RAIN      43  32  65 E5        29.65R
LANDER         CLOUDY    58  33  39 VRB3      29.58F
RIVERTON       FAIR      58  30  34 N6        29.60F
CASPER         FAIR      57  36  45 S12G18    29.63F
DOUGLAS        LGT RAIN  49  44  83 NW6       29.69S

$$
WYZ021-027>030-104>119-302300-
SOUTHERN WYOMING

CITY           SKY/WX    TMP DP  RH WIND       PRES   REMARKS
EVANSTON       RAIN      38  34  85 W14       29.65F FOG     WCI  30
KEMMERER       DRIZZLE   37  34  87 N5        29.67F WCI  34
FORT BRIDGER   LGT RAIN  39  39 100 W8        29.70S WCI  33
ROCK SPRINGS   FAIR      50  38  63 N9        29.65F
DIXON            N/A     58  28  30 SW13      29.67F
RAWLINS        PTSUNNY   53  29  39 SW7       29.68F
SARATOGA       CLOUDY    50  32  50 SE5       29.70F
LARAMIE        CLOUDY    49  30  48 NE8       29.72F
CHEYENNE       LGT RAIN  52  35  52 W13       29.71R
TORRINGTON     CLOUDY    60  36  40 S9        29.65S
PINE BLUFFS    CLOUDY    57  34  41 S6        29.69S

$$



USA.gov is the U.S. government's official web portal to all federal, state and local government web resources and services.